Location: Caicarita
(10.0502°N, 67.6875°W)
Time: 01:46:37
(UTC+00:00)

GP-B - Pass Details

Date: 05 August 2024
Orbit: 623 x 628 km, 89.8° (Epoch: 09 September)

Event Time Altitude Azimuth Distance (km) Brightness Sun altitude
Rises 23:08:15 0° 20° (NNE) 2,896 6.5 -4.6°
Reaches altitude 10° 23:10:40 10° 31° (NNE) 1,989 5.5 -5.1°
Maximum altitude 23:14:30 30° 92° (E) 1,120 3.9 -6.0°
Drops below altitude 10° 23:18:20 10° 154° (SSE) 1,988 5.3 -6.9°
Sets 23:20:44 0° 164° (SSE) 2,894 6.2 -7.5°
